Location: Unspecified
(50.7693°N, 0.0000°E)
Time: 06:30:12
(UTC+00:00)

A-11 Canister half - Pass Details

Date: 19 June 2019
Orbit: 1527 x 1682 km, 47.3° (Epoch: 13 October)

Event Time Altitude Azimuth Distance (km) Brightness Sun altitude
Rises 10:02:33 0° 281° (W) 4,686 11.2 54.3°
Reaches altitude 10° 10:05:38 10° 277° (W) 3,699 10.8 54.7°
Maximum altitude 10:14:39 58° 202° (SSW) 1,753 10.4 55.7°
Drops below altitude 10° 10:23:46 10° 127° (SE) 3,737 11.8 56.8°
Sets 10:26:55 0° 124° (ESE) 4,736 12.1 57.1°
